CW5458 Weather Reports


Display with metric or nautical units.
time (UTC)temp
F
wind
direction
speed
MPH
gust
MPH
rain 1hr
in
rain 24hr
in
rain mn
in
humidity
%
barometer
mb
20260508075011 51 360 0.0 0.0 0.00 0.88 0.00 95 1014.1
20260508074525 51 360 0.0 0.0 0.00 0.88 0.00 95 1014.0
20260508074006 51 360 0.0 0.0 0.00 0.89 0.00 95 1014.0
20260508073507 51 360 0.0 0.0 0.00 0.89 0.00 94 1014.1
20260508073017 51 360 0.0 0.0 0.00 0.90 0.00 94 1013.9
20260508072508 51 360 0.0 0.0 0.00 0.90 0.00 94 1013.9
20260508072008 52 360 0.0 0.0 0.00 0.90 0.00 95 1013.9
20260508071520 52 360 0.0 0.0 0.00 0.90 0.00 95 1013.9
20260508071009 52 360 0.0 0.0 0.00 0.91 0.00 95 1013.9
20260508070513 52 360 0.0 0.0 0.00 0.91 0.00 95 1013.8
20260508070023 52 360 0.0 0.0 0.00 0.91 0.00 95 1013.7
20260508065507 52 360 0.0 0.0 0.00 0.91 0.00 95 1013.7
20260508065011 52 360 0.0 0.0 0.00 0.91 0.00 95 1013.8
20260508064520 52 360 0.0 0.0 0.00 0.91 0.00 94 1013.8
20260508064010 52 360 0.0 1.0 0.00 0.91 0.00 94 1013.8
20260508063508 52 360 0.0 1.0 0.00 0.91 0.00 95 1013.8
20260508063022 52 360 0.0 0.0 0.00 0.91 0.00 94 1013.8
20260508062507 52 360 0.0 0.0 0.00 0.91 0.00 94 1013.7
20260508062007 53 360 0.0 0.0 0.00 0.91 0.00 94 1013.7
20260508061529 53 360 0.0 0.0 0.00 0.91 0.00 95 1013.7
20260508061014 53 360 0.0 0.0 0.00 0.91 0.00 95 1013.7
20260508060509 53 360 0.0 0.0 0.00 0.91 0.00 94 1013.7
20260508060023 53 360 0.0 1.0 0.00 0.91 0.00 95 1013.7
20260508055509 53 360 0.0 1.0 0.00 0.91 0.00 95 1013.6
20260508055013 53 360 0.0 1.0 0.00 0.91 0.00 94 1013.7
20260508054523 53 360 0.0 1.0 0.00 0.91 0.00 95 1013.7
20260508054006 54 360 0.0 1.0 0.00 0.91 0.00 95 1013.5
20260508053506 54 360 0.0 1.0 0.00 0.91 0.00 95 1013.4
20260508053018 54 360 0.0 1.0 0.00 0.91 0.00 95 1013.4
20260508052506 54 360 0.0 1.0 0.00 0.91 0.00 95 1013.5
20260508052007 54 360 0.0 1.0 0.00 0.91 0.00 95 1013.6
20260508051520 54 360 0.0 0.0 0.00 0.91 0.00 95 1013.5
20260508051011 54 360 0.0 0.0 0.00 0.92 0.00 95 1013.4
20260508050509 54 360 0.0 0.0 0.00 0.92 0.00 95 1013.3
20260508050020 54 360 0.0 0.0 0.00 0.98 0.00 95 1013.4
20260508045505 54 360 0.0 0.0 0.00 1.08 0.00 95 1013.4
20260508045009 54 360 0.0 0.0 0.00 1.11 0.00 95 1013.5
20260508044522 54 360 0.0 0.0 0.00 1.13 0.00 95 1013.4
20260508044004 54 360 0.0 0.0 0.00 1.15 0.00 94 1013.4
20260508043508 54 360 0.0 0.0 0.00 1.21 0.00 95 1013.2
20260508043012 54 360 0.0 0.0 0.00 1.27 0.00 95 1013.3
20260508042505 54 360 0.0 0.0 0.00 1.30 0.00 95 1013.4
20260508042006 54 360 0.0 1.0 0.00 1.30 0.00 95 1013.3
20260508041520 54 360 0.0 1.0 0.00 1.30 0.00 95 1013.3
20260508041008 54 360 0.0 0.0 0.00 1.30 0.00 95 1013.3
20260508040506 54 360 0.0 1.0 0.00 1.30 0.00 95 1013.3
20260508040022 54 360 0.0 1.0 0.00 1.30 0.00 95 1013.1
20260508035007 54 360 0.0 1.0 0.00 1.30 1.30 95 1013.3
20260508034533 54 360 0.0 1.0 0.00 1.30 1.30 95 1013.1
20260508034007 54 360 0.0 1.0 0.00 1.30 1.30 95 1013.0
20260508033509 54 360 0.0 1.0 0.00 1.30 1.30 95 1013.0
20260508032512 54 360 0.0 1.0 0.00 1.31 1.30 95 1012.7
20260508031518 54 360 0.0 2.0 0.00 1.31 1.30 95 1012.7
20260508031004 54 360 0.0 2.0 0.00 1.31 1.30 95 1012.9
20260508030507 54 360 0.0 2.0 0.00 1.31 1.30 95 1012.9
20260508030020 54 360 0.0 1.0 0.00 1.31 1.30 95 1012.5
20260508025508 54 360 0.0 1.0 0.00 1.31 1.30 95 1012.5
20260508025012 54 360 0.0 1.0 0.00 1.31 1.30 94 1012.5
20260508024545 54 360 0.0 1.0 0.00 1.31 1.30 94 1012.4
20260508024003 54 360 0.0 1.0 0.00 1.31 1.30 94 1012.4
20260508023502 54 360 0.0 0.0 0.00 1.31 1.30 94 1012.4
20260508023010 54 360 0.0 0.0 0.00 1.31 1.30 94 1012.3
20260508022503 54 360 0.0 0.0 0.00 1.31 1.30 94 1012.3
20260508022003 54 360 0.0 1.0 0.00 1.31 1.30 94 1012.3
20260508021519 54 360 0.0 2.0 0.01 1.31 1.30 94 1012.3
20260508021007 54 360 0.0 2.0 0.01 1.31 1.30 95 1012.3
20260508020504 54 360 0.0 1.0 0.01 1.31 1.30 95 1012.0
20260508020018 54 360 0.0 1.0 0.01 1.31 1.30 95 1011.9
20260508015506 54 360 0.0 2.0 0.01 1.31 1.30 94 1011.9
20260508015003 54 360 0.0 2.0 0.01 1.31 1.30 94 1012.1
20260508014504 54 360 0.0 2.0 0.01 1.31 1.30 94 1012.1
20260508014003 54 360 0.0 2.0 0.01 1.31 1.30 94 1012.1
20260508013504 54 360 0.0 2.0 0.01 1.31 1.30 94 1011.9
20260508013010 54 360 0.0 1.0 0.02 1.31 1.30 94 1011.9
20260508012502 54 360 0.0 1.0 0.03 1.31 1.30 94 1011.8
20260508012002 54 360 0.0 2.0 0.04 1.31 1.30 94 1011.7
20260508011509 54 360 0.0 2.0 0.04 1.30 1.29 94 1011.6
20260508011003 54 360 0.0 2.0 0.06 1.30 1.29 94 1011.3
20260508010503 54 360 0.0 3.0 0.06 1.30 1.29 94 1011.1
20260508010016 54 360 0.0 3.0 0.06 1.30 1.29 94 1011.1
20260508005503 54 360 0.0 3.0 0.06 1.30 1.29 94 1011.3
20260508005004 54 360 0.0 3.0 0.06 1.30 1.29 94 1011.2
20260508004536 54 360 1.0 3.0 0.06 1.30 1.29 94 1011.1
20260508004007 54 360 0.0 3.0 0.06 1.30 1.29 94 1011.2
20260508003504 54 360 1.0 3.0 0.06 1.30 1.29 93 1011.6
20260508003006 54 360 1.0 3.0 0.05 1.29 1.28 93 1011.1
20260508002502 54 360 0.0 3.0 0.04 1.28 1.27 94 1011.0
20260508002003 54 360 0.0 3.0 0.03 1.27 1.26 94 1011.2
20260508001524 54 360 0.0 5.0 0.02 1.26 1.25 93 1011.4
20260508001002 54 360 2.0 5.0 0.00 1.24 1.23 93 1011.2
20260508000502 54 360 0.0 5.0 0.00 1.24 1.23 93 1010.8
20260508000015 54 360 2.0 5.0 0.00 1.24 1.23 92 1010.5
20260507235509 55 360 1.0 6.0 0.00 1.24 1.23 92 1010.0
20260507235002 55 360 2.0 6.0 0.00 1.24 1.23 92 1009.8
20260507234518 55 360 0.0 4.0 0.00 1.24 1.23 93 1010.0
20260507233504 55 360 2.0 8.0 0.00 1.24 1.23 92 1009.9
20260507233022 55 360 1.0 5.0 0.00 1.24 1.23 93 1010.0
20260507232502 55 360 0.0 6.0 0.00 1.24 1.23 93 1010.1
20260507232001 55 360 1.0 6.0 0.00 1.24 1.23 92 1010.1
20260507231509 55 360 2.0 6.0 0.00 1.24 1.23 92 1010.2
20260507231001 55 360 1.0 5.0 0.00 1.24 1.23 92 1010.0
20260507230504 55 360 1.0 5.0 0.00 1.24 1.23 92 1009.9
20260507230013 55 360 1.0 5.0 0.00 1.24 1.23 92 1009.9
20260507225506 55 360 2.0 5.0 0.00 1.24 1.23 92 1009.9
20260507224514 55 360 1.0 10.0 0.00 1.24 1.23 92 1009.7
20260507224006 55 360 1.0 6.0 0.00 1.24 1.23 92 1009.7
20260507223502 55 360 0.0 6.0 0.00 1.24 1.23 92 1009.6
20260507223021 55 360 0.0 5.0 0.00 1.24 1.23 92 1009.6
20260507222506 55 360 1.0 5.0 0.00 1.24 1.23 92 1009.5
20260507222001 55 360 1.0 5.0 0.00 1.24 1.23 93 1009.4
20260507221524 55 360 1.0 5.0 0.00 1.24 1.23 93 1009.5
20260507221003 55 360 0.0 6.0 0.00 1.24 1.23 93 1009.6
20260507220503 55 360 2.0 6.0 0.00 1.24 1.23 93 1009.3
20260507220011 55 360 1.0 5.0 0.00 1.24 1.23 93 1009.7
20260507215505 55 360 0.0 5.0 0.00 1.24 1.23 93 1009.6
20260507214512 55 360 2.0 8.0 0.00 1.24 1.23 92 1009.7
20260507214004 55 360 2.0 5.0 0.00 1.24 1.23 92 1009.6
20260507213026 55 360 1.0 13.0 0.00 1.24 1.23 92 1009.3
20260507212506 56 360 3.0 9.0 0.00 1.24 1.23 92 1009.3
20260507212014 56 360 3.0 9.0 0.00 1.24 1.23 93 1009.3
20260507211521 56 360 1.0 8.0 0.00 1.24 1.23 93 1009.2
20260507211005 56 360 2.0 8.0 0.00 1.24 1.23 93 1009.1
20260507210509 57 360 3.0 8.0 0.02 1.24 1.23 93 1009.1
20260507210008 57 360 3.0 6.0 0.04 1.24 1.23 93 1009.0
20260507205505 57 360 2.0 9.0 0.05 1.24 1.23 93 1009.0
20260507205003 57 360 2.0 11.0 0.06 1.24 1.23 93 1008.8
20260507204514 58 360 3.0 11.0 0.08 1.24 1.23 93 1008.8
20260507204006 58 360 2.0 10.0 0.08 1.24 1.23 93 1008.8
20260507203506 58 360 2.0 10.0 0.08 1.24 1.23 94 1008.9
20260507203031 58 360 2.0 11.0 0.08 1.24 1.23 94 1008.7
20260507202503 58 360 5.0 11.0 0.09 1.24 1.23 93 1008.5
20260507202010 58 360 2.0 5.0 0.09 1.24 1.23 94 1008.6
20260507201520 58 360 1.0 6.0 0.09 1.24 1.23 94 1008.8
20260507200508 58 360 0.0 8.0 0.07 1.22 1.21 93 1008.8
20260507200020 58 360 0.0 8.0 0.05 1.20 1.19 93 1008.7
20260507195503 58 360 3.0 8.0 0.07 1.19 1.17 93 1008.7
20260507195010 58 360 1.0 5.0 0.10 1.17 1.16 93 1008.7
20260507194516 59 360 1.0 8.0 0.13 1.16 1.15 93 1008.6
20260507194003 59 360 2.0 9.0 0.18 1.16 1.15 92 1008.7
20260507193503 59 360 3.0 9.0 0.20 1.16 1.15 93 1008.6
20260507193018 59 360 1.0 4.0 0.20 1.16 1.15 93 1008.5
20260507192508 59 360 1.0 6.0 0.19 1.15 1.14 93 1008.6
20260507192007 60 360 1.0 8.0 0.19 1.16 1.14 92 1008.5
20260507191520 60 360 3.0 8.0 0.19 1.16 1.14 92 1008.4
20260507191010 60 360 1.0 6.0 0.19 1.16 1.14 91 1008.8
20260507190507 61 360 2.0 11.0 0.19 1.16 1.14 90 1008.7
20260507190022 62 360 2.0 15.0 0.19 1.16 1.14 90 1008.5
20260507185507 63 360 5.0 15.0 0.16 1.14 1.11 89 1008.1
20260507185011 65 360 2.0 8.0 0.12 1.10 1.07 90 1007.4
20260507184523 66 360 2.0 8.0 0.07 1.04 1.02 89 1007.4
20260507184003 67 360 3.0 8.0 0.02 1.00 0.97 88 1007.7
20260507183506 68 213 2.0 9.0 0.00 0.98 0.95 87 1007.8
20260507183014 70 360 4.0 9.0 0.00 0.98 0.95 87 1007.7
20260507182504 71 136 1.0 2.0 0.00 0.98 0.95 91 1008.0
20260507182008 71 91 0.0 3.0 0.00 0.98 0.95 91 1007.6
20260507181516 70 44 0.0 3.0 0.00 0.98 0.95 90 1007.2
20260507181004 70 327 0.0 3.0 0.00 0.98 0.95 91 1007.5
20260507180512 70 86 1.0 3.0 0.00 0.98 0.95 93 1007.7
20260507180023 70 360 0.0 2.0 0.00 0.98 0.95 93 1007.7
20260507175008 70 360 0.0 2.0 0.00 0.98 0.95 93 1008.1
20260507174531 70 360 0.0 3.0 0.00 0.98 0.95 93 1008.3
20260507174005 70 360 0.0 3.0 0.00 0.98 0.95 92 1008.3
20260507173510 70 360 1.0 3.0 0.00 0.98 0.95 93 1008.2
20260507172504 70 188 0.0 5.0 0.00 0.98 0.95 93 1007.9
20260507172008 70 11 1.0 5.0 0.00 0.98 0.95 93 1007.8
20260507171522 70 325 1.0 5.0 0.00 0.98 0.95 94 1007.9
20260507171004 69 9 0.0 4.0 0.00 0.98 0.95 94 1007.8
20260507170508 69 29 1.0 3.0 0.00 0.98 0.95 94 1007.8
20260507170019 69 348 0.0 3.0 0.00 0.98 0.95 94 1007.9
20260507165507 69 360 0.0 4.0 0.00 0.98 0.95 94 1007.9
20260507165008 68 286 2.0 4.0 0.00 0.98 0.95 94 1008.0
20260507164521 68 5 1.0 2.0 0.00 0.98 0.95 94 1008.2
20260507164007 68 17 0.0 2.0 0.00 0.98 0.95 94 1008.5
20260507163512 68 17 0.0 2.0 0.00 0.98 0.95 94 1008.5
20260507163025 68 111 0.0 3.0 0.00 0.98 0.95 94 1008.8
20260507162511 68 100 0.0 3.0 0.00 0.98 0.95 94 1008.9
20260507162012 67 360 0.0 2.0 0.00 0.98 0.95 94 1009.0
20260507161003 67 360 0.0 3.0 0.01 0.98 0.95 94 1009.3
20260507160505 67 360 0.0 4.0 0.01 0.98 0.95 94 1009.4
20260507160016 67 360 0.0 4.0 0.02 0.98 0.95 94 1009.5
20260507155514 67 360 1.0 4.0 0.02 0.98 0.95 94 1009.7
20260507155011 67 360 0.0 3.0 0.04 0.98 0.95 94 1009.4
20260507154525 67 360 0.0 3.0 0.08 0.98 0.95 94 1009.1
20260507153509 67 360 0.0 3.0 0.13 0.98 0.95 95 1008.8
20260507153021 67 360 0.0 3.0 0.16 0.98 0.95 95 1008.6
20260507152503 67 360 0.0 3.0 0.17 0.98 0.95 94 1008.9
20260507152017 67 360 0.0 6.0 0.20 0.98 0.95 94 1009.3
20260507151011 66 360 1.0 4.0 0.25 0.97 0.94 94 1008.8
20260507150027 66 360 1.0 6.0 0.30 0.96 0.93 93 1009.0
20260507145506 66 360 1.0 8.0 0.33 0.96 0.93 93 1009.1
20260507145007 66 360 1.0 10.0 0.33 0.94 0.91 94 1009.4
20260507144521 66 360 3.0 10.0 0.30 0.90 0.87 94 1009.6
20260507144006 66 360 1.0 11.0 0.27 0.87 0.84 94 1009.7
20260507143510 66 360 2.0 11.0 0.25 0.85 0.82 94 1009.7
20260507143021 66 360 2.0 6.0 0.22 0.82 0.79 94 1009.7
20260507142509 67 360 1.0 6.0 0.21 0.81 0.78 94 1009.7
20260507142022 67 360 0.0 6.0 0.18 0.78 0.75 94 1009.7
20260507141520 67 360 1.0 6.0 0.16 0.76 0.73 94 1009.8
20260507141011 67 360 1.0 8.0 0.12 0.72 0.69 94 1009.8
20260507140509 67 360 2.0 8.0 0.08 0.68 0.65 94 1009.9
20260507140021 67 360 1.0 8.0 0.06 0.66 0.63 94 1009.9
20260507135510 67 360 0.0 3.0 0.03 0.63 0.60 94 1009.9
20260507135006 67 360 0.0 3.0 0.01 0.61 0.58 94 1010.0
20260507134518 67 360 0.0 3.0 0.00 0.60 0.57 94 1009.9
20260507134006 67 360 0.0 3.0 0.00 0.60 0.57 94 1009.9
20260507133507 67 360 0.0 3.0 0.00 0.60 0.57 94 1009.8
20260507133028 67 360 1.0 3.0 0.00 0.60 0.57 94 1009.8
20260507132512 67 360 0.0 2.0 0.00 0.60 0.57 94 1009.9
20260507132009 67 360 0.0 2.0 0.00 0.60 0.57 94 1009.8
20260507131521 67 360 0.0 3.0 0.00 0.60 0.57 94 1009.7
20260507131007 67 360 0.0 3.0 0.00 0.60 0.57 95 1009.8
20260507130510 67 360 0.0 4.0 0.00 0.60 0.57 95 1009.7
20260507130023 67 360 1.0 4.0 0.00 0.60 0.57 95 1009.6
20260507125511 67 360 1.0 4.0 0.00 0.60 0.57 95 1009.4
20260507125013 67 360 0.0 4.0 0.00 0.60 0.57 95 1009.6
20260507124527 66 360 2.0 4.0 0.00 0.60 0.57 94 1009.6
20260507124011 66 360 1.0 5.0 0.00 0.60 0.57 94 1009.7
20260507123506 66 360 2.0 5.0 0.00 0.60 0.57 95 1009.7
20260507123031 66 360 1.0 4.0 0.00 0.60 0.57 94 1009.6
20260507122508 66 360 2.0 4.0 0.00 0.60 0.57 94 1009.9
20260507122009 66 360 1.0 4.0 0.00 0.60 0.57 95 1009.9
20260507121522 66 360 1.0 4.0 0.00 0.60 0.57 95 1010.0
20260507121009 66 360 1.0 5.0 0.00 0.60 0.57 95 1010.1
20260507120509 66 360 1.0 5.0 0.00 0.60 0.57 95 1010.0
20260507120021 66 360 1.0 3.0 0.00 0.60 0.57 95 1010.2
20260507115510 66 360 1.0 4.0 0.00 0.60 0.57 94 1010.2
20260507115009 66 360 2.0 4.0 0.00 0.60 0.57 94 1010.2
20260507114521 66 360 0.0 2.0 0.00 0.60 0.57 94 1010.3
20260507114009 66 360 1.0 2.0 0.00 0.60 0.57 94 1010.4
20260507113501 66 360 0.0 3.0 0.01 0.60 0.57 94 1010.5
20260507113008 65 360 1.0 3.0 0.01 0.60 0.57 94 1010.5
20260507112503 65 360 1.0 2.0 0.02 0.60 0.57 94 1010.4
20260507112003 65 360 0.0 2.0 0.02 0.60 0.57 94 1010.3
20260507111504 65 360 0.0 2.0 0.02 0.60 0.57 94 1010.4
20260507111004 65 360 0.0 2.0 0.03 0.60 0.57 94 1010.6
20260507110504 65 360 1.0 3.0 0.03 0.60 0.57 94 1010.4
20260507110004 65 360 0.0 3.0 0.03 0.60 0.57 94 1010.6
20260507105506 65 360 0.0 2.0 0.03 0.60 0.57 94 1010.4
20260507105003 65 360 0.0 2.0 0.04 0.60 0.57 94 1010.4
20260507104504 65 360 0.0 1.0 0.04 0.60 0.57 94 1010.3
20260507104005 65 360 0.0 1.0 0.04 0.60 0.57 94 1010.3
20260507103503 65 360 0.0 2.0 0.03 0.58 0.56 94 1010.4
20260507103003 65 360 0.0 3.0 0.04 0.58 0.56 94 1010.2
20260507102502 65 360 0.0 3.0 0.03 0.58 0.55 94 1010.1
20260507102003 65 360 1.0 3.0 0.03 0.58 0.55 94 1010.0
20260507101504 65 360 1.0 3.0 0.03 0.58 0.55 94 1010.2
20260507101002 65 360 0.0 2.0 0.02 0.57 0.54 94 1010.3
20260507100502 65 360 0.0 1.0 0.03 0.57 0.54 94 1010.3
20260507100005 65 360 0.0 3.0 0.03 0.57 0.54 94 1010.3
20260507095504 65 360 0.0 3.0 0.03 0.57 0.54 94 1010.2
20260507095004 65 360 0.0 3.0 0.02 0.56 0.52 94 1010.0
20260507094504 65 360 1.0 3.0 0.02 0.56 0.52 94 1010.2
20260507094008 65 360 0.0 1.0 0.02 0.56 0.52 94 1010.1
20260507093506 65 360 0.0 0.0 0.02 0.56 0.52 94 1010.2
20260507093005 65 360 0.0 0.0 0.02 0.55 0.52 94 1010.2
20260507092505 65 360 0.0 0.0 0.05 0.55 0.52 94 1010.1
20260507092004 65 360 0.0 0.0 0.07 0.55 0.52 94 1009.9
20260507091504 65 360 0.0 0.0 0.08 0.55 0.52 94 1010.1
20260507091003 65 360 0.0 4.0 0.09 0.55 0.52 94 1010.2
20260507090503 65 360 0.0 4.0 0.08 0.54 0.51 94 1010.1
20260507090010 65 360 0.0 5.0 0.08 0.54 0.51 94 1010.1
20260507085503 65 360 2.0 5.0 0.08 0.54 0.51 94 1010.1
20260507085004 65 360 2.0 5.0 0.09 0.54 0.51 94 1010.3
20260507084504 65 360 1.0 5.0 0.10 0.54 0.51 94 1010.2
20260507084003 65 360 3.0 5.0 0.10 0.54 0.51 94 1010.3
20260507083504 65 360 2.0 5.0 0.10 0.54 0.51 94 1010.3
20260507083005 65 360 3.0 5.0 0.10 0.52 0.50 94 1010.5
20260507082504 65 360 1.0 5.0 0.07 0.50 0.47 94 1010.7
20260507082003 65 360 2.0 4.0 0.05 0.48 0.45 94 1010.9
20260507081503 65 360 1.0 5.0 0.05 0.47 0.44 94 1011.0
20260507080505 65 360 3.0 5.0 0.04 0.46 0.43 94 1010.8
20260507080005 65 360 0.0 4.0 0.04 0.46 0.43 94 1010.8
20260507075503 65 360 2.0 4.0 0.04 0.46 0.43 94 1010.6